DELTA 1 DEB, 7075

Orbit data source: Space-Track

DELTA 1 DEB, 7075 is space debris in SSO originally from a launch on Tue, 06 Nov 1973 UTC launched from the Air Force Western Test Range (AFWTR). Debris objects in space refer to the collection of defunct objects orbiting the Earth. Examples of debris include non-operational satellites, rocket bodies, and fragments generated from explosions, collisions, or faulty payload assembly.

Loading next visibility...
Identifier
7075, 1973-086BT
Orbit
SSO
Country
Flag of USUS
Related business
Manufacturer
Unknown
Mission
Spacecraft
Bus & Motor
Unknown
Mass
Unknown
Launch date (UTC)
1973-11-06 (52 years ago)
Launch vehicle
Unknown
Launch site
Air Force Western Test Range (AFWTR)
Object type
Payload
Rocket body
Debris
Shape & HBR
Unknown shape, 0.1 m
Radar Cross Section
Medium (>0.1 m² and <1 m²)

Expand to show TLE details & history
Last TLE update: 10 hours ago

TLE from 10 hours ago
0 DELTA 1 DEB
1  7075U 73086BT  26034.30453435  .00001442  00000-0  47295-2 0  9995
2  7075 101.6034 291.7950 0160730 241.0711 235.4590 12.99099579448635
Epoch: 2026-02-03T07:18Z
TLE epoch observation values (Epoch: 2026-02-03T07:18:31.767Z)
Latitude
62.65827°
Longitude
-108.04992°
Altitude
1,347.204 km
Speed
7.157 km/s
True Right ascension
09h 00m 16s
True Declination
62° 31' 42"
Sunlit
Object was in full shadow at epoch
Visualization orbit readout
Latitude
Unknown
Longitude
Unknown
Altitude
Unknown
Speed
Unknown
Apparent Right ascension
Unknown
Apparent Declination
Unknown
Sunlit
N/A
Visualization observer readout
Local Sidereal Time
19:37:04
Azimuth
Unknown
Elevation
Unknown
Doppler factor
Unknown
Orbital elements
Apogee altitude
1,385.911 km
Perigee altitude
1,140.276 km
Semi-major axis
7,641.23 km
Eccentricity
0.01607
Inclination
101.6034°
RAAN
291.795°
Arg. of periapsis
241.0711°
True anomaly
233.95911°
Mean anomaly
235.459°
Eccentric anomaly
234.70734°
Mean motion
3.24936 °/min
Orbital period
110.79 mins
BSTAR
0.0047295
Loading maneuver chart data...
Computing Atmospheric mass density...

Documentation

Showing up to 5 results
|